Location: Poigny-la-Forêt
(48.6876°N, 1.7701°E)
Time: 07:55:37
(UTC+01:00)

OTV 5 (USA 277) - Pass Details

Date: 28 October 2019
Orbit: 310 x 324 km, 54.5° (Epoch: 17 October)

Event Time Altitude Azimuth Distance (km) Brightness Sun altitude
Rises 19:36:14 0° 213° (SSW) 2,052 ? -19.7°
Reaches altitude 10° 19:38:20 10° 200° (SSW) 1,227 ? -20.0°
Enters shadow 19:38:40 12° 196° (SSW) 1,104 ? -20.1°
